Year,Month,Day,Hour,Minute,Value (Times are PST for windspeed in km/hr)
2013,04,11,00,00,17.70
2013,04,11,00,01,22.10
2013,04,11,00,02,25.30
2013,04,11,00,03,23.40
2013,04,11,00,04,21.40
2013,04,11,00,05,20.10
2013,04,11,00,06,18.50
2013,04,11,00,07,17.60
2013,04,11,00,08,17.00
2013,04,11,00,09,20.50
2013,04,11,00,10,16.40
2013,04,11,00,11,21.30
2013,04,11,00,12,18.10
2013,04,11,00,13,19.80
2013,04,11,00,14,15.60
2013,04,11,00,15,25.80
2013,04,11,00,16,21.30
2013,04,11,00,17,13.70
2013,04,11,00,18,15.60
2013,04,11,00,19,15.70
2013,04,11,00,20,16.50
2013,04,11,00,21,22.00
2013,04,11,00,22,17.10
2013,04,11,00,23,14.40
2013,04,11,00,24,19.20
2013,04,11,00,25,23.40
2013,04,11,00,26,23.00
2013,04,11,00,27,20.60
2013,04,11,00,28,19.20
2013,04,11,00,29,23.50
2013,04,11,00,30,16.70
2013,04,11,00,31,21.40
2013,04,11,00,32,19.40
2013,04,11,00,33,17.40
2013,04,11,00,34,18.00
2013,04,11,00,35,18.60
2013,04,11,00,36,21.80
2013,04,11,00,37,19.90
2013,04,11,00,38,20.80
2013,04,11,00,39,13.60
2013,04,11,00,40,15.50
2013,04,11,00,41,22.50
2013,04,11,00,42,18.30
2013,04,11,00,43,15.90
2013,04,11,00,44,17.10
2013,04,11,00,45,15.60
2013,04,11,00,46,20.30
2013,04,11,00,47,14.00
2013,04,11,00,48,27.70
2013,04,11,00,49,21.00
2013,04,11,00,50,24.00
2013,04,11,00,51,19.20
2013,04,11,00,52,19.20
2013,04,11,00,53,24.90
2013,04,11,00,54,26.10
2013,04,11,00,55,25.00
2013,04,11,00,56,20.30
2013,04,11,00,57,15.00
2013,04,11,00,58,19.70
2013,04,11,00,59,18.40
2013,04,11,01,00,19.70
2013,04,11,01,01,18.70
2013,04,11,01,02,20.00
2013,04,11,01,03,16.90
2013,04,11,01,04,17.30
2013,04,11,01,05,20.90
2013,04,11,01,06,22.50
2013,04,11,01,07,20.00
2013,04,11,01,08,20.60
2013,04,11,01,09,26.70
2013,04,11,01,10,21.90
2013,04,11,01,11,14.30
2013,04,11,01,12,18.40
2013,04,11,01,13,19.20
2013,04,11,01,14,18.50
2013,04,11,01,15,12.80
2013,04,11,01,16,15.50
2013,04,11,01,17,20.80
2013,04,11,01,18,18.20
2013,04,11,01,19,16.50
2013,04,11,01,20,12.10
2013,04,11,01,21,12.50
2013,04,11,01,22,15.30
2013,04,11,01,23,11.50
2013,04,11,01,24,17.10
2013,04,11,01,25,9.40
2013,04,11,01,26,11.00
2013,04,11,01,27,13.60
2013,04,11,01,28,9.90
2013,04,11,01,29,15.40
2013,04,11,01,30,9.30
2013,04,11,01,31,12.10
2013,04,11,01,32,8.10
2013,04,11,01,33,8.10
2013,04,11,01,34,10.80
2013,04,11,01,35,9.60
2013,04,11,01,36,10.80
2013,04,11,01,37,15.30
2013,04,11,01,38,14.50
2013,04,11,01,39,12.20
2013,04,11,01,40,7.50
2013,04,11,01,41,9.20
2013,04,11,01,42,10.80
2013,04,11,01,43,16.00
2013,04,11,01,44,16.80
2013,04,11,01,45,18.30
2013,04,11,01,46,12.30
2013,04,11,01,47,17.50
2013,04,11,01,48,13.00
2013,04,11,01,49,14.20
2013,04,11,01,50,21.40
2013,04,11,01,51,20.30
2013,04,11,01,52,12.90
2013,04,11,01,53,12.90
2013,04,11,01,54,12.10
2013,04,11,01,55,15.30
2013,04,11,01,56,17.20
2013,04,11,01,57,12.10
2013,04,11,01,58,13.60
2013,04,11,01,59,20.60
2013,04,11,02,00,14.00
2013,04,11,02,01,11.30
2013,04,11,02,02,17.00
2013,04,11,02,03,13.30
2013,04,11,02,04,13.50
2013,04,11,02,05,17.10
2013,04,11,02,06,16.70
2013,04,11,02,07,16.10
2013,04,11,02,08,16.00
2013,04,11,02,09,12.70
2013,04,11,02,10,12.00
2013,04,11,02,11,11.00
2013,04,11,02,12,13.20
2013,04,11,02,13,20.30
2013,04,11,02,14,20.70
2013,04,11,02,15,15.00
2013,04,11,02,16,14.80
2013,04,11,02,17,16.70
2013,04,11,02,18,18.70
2013,04,11,02,19,18.20
2013,04,11,02,20,16.60
2013,04,11,02,21,21.70
2013,04,11,02,22,18.00
2013,04,11,02,23,22.90
2013,04,11,02,24,23.30
2013,04,11,02,25,22.30
2013,04,11,02,26,21.10
2013,04,11,02,27,24.40
2013,04,11,02,28,19.90
2013,04,11,02,29,15.90
2013,04,11,02,30,15.70
2013,04,11,02,31,18.10
2013,04,11,02,32,21.60
2013,04,11,02,33,22.20
2013,04,11,02,34,15.90
2013,04,11,02,35,17.80
2013,04,11,02,36,15.20
2013,04,11,02,37,13.20
2013,04,11,02,38,15.90
2013,04,11,02,39,20.50
2013,04,11,02,40,15.30
2013,04,11,02,41,16.10
2013,04,11,02,42,17.30
2013,04,11,02,43,17.80
2013,04,11,02,44,19.60
2013,04,11,02,45,21.00
2013,04,11,02,46,22.00
2013,04,11,02,47,13.30
2013,04,11,02,48,19.90
2013,04,11,02,49,18.00
2013,04,11,02,50,16.20
2013,04,11,02,51,24.20
2013,04,11,02,52,18.80
2013,04,11,02,53,13.00
2013,04,11,02,54,17.60
2013,04,11,02,55,22.50
2013,04,11,02,56,17.30
2013,04,11,02,57,20.60
2013,04,11,02,58,17.40
2013,04,11,02,59,14.60
2013,04,11,03,00,17.20
2013,04,11,03,01,17.80
2013,04,11,03,02,15.20
2013,04,11,03,03,15.70
2013,04,11,03,06,18.70
2013,04,11,03,07,16.70
2013,04,11,03,08,12.90
2013,04,11,03,09,10.80
2013,04,11,03,10,12.10
2013,04,11,03,11,14.80
2013,04,11,03,12,13.20
2013,04,11,03,13,14.50
2013,04,11,03,14,9.90
2013,04,11,03,15,11.80
2013,04,11,03,16,9.90
2013,04,11,03,17,13.60
2013,04,11,03,18,12.30
2013,04,11,03,19,7.50
2013,04,11,03,20,8.30
2013,04,11,03,21,12.40
2013,04,11,03,22,9.90
2013,04,11,03,23,10.60
2013,04,11,03,24,9.40
2013,04,11,03,25,14.10
2013,04,11,03,26,11.70
2013,04,11,03,27,7.70
2013,04,11,03,28,8.10
2013,04,11,03,29,5.70
2013,04,11,03,30,9.60
2013,04,11,03,31,9.00
2013,04,11,03,32,7.50
2013,04,11,03,33,11.00
2013,04,11,03,34,10.60
2013,04,11,03,35,15.10
2013,04,11,03,36,14.10
2013,04,11,03,37,11.20
2013,04,11,03,38,12.60
2013,04,11,03,39,9.70
2013,04,11,03,40,10.30
2013,04,11,03,41,14.30
2013,04,11,03,42,13.20
2013,04,11,03,43,14.60
2013,04,11,03,44,15.70
2013,04,11,03,45,14.20
2013,04,11,03,46,11.00
2013,04,11,03,47,12.80
2013,04,11,03,48,13.20
2013,04,11,03,49,12.30
2013,04,11,03,50,9.40
2013,04,11,03,51,16.20
2013,04,11,03,52,14.90
2013,04,11,03,53,19.30
2013,04,11,03,54,17.80
2013,04,11,03,55,18.10
2013,04,11,03,56,13.50
2013,04,11,03,57,15.40
2013,04,11,03,58,14.00
2013,04,11,03,59,10.10
2013,04,11,04,00,11.00
2013,04,11,04,01,16.00
2013,04,11,04,02,11.90
2013,04,11,04,03,9.90
2013,04,11,04,04,11.90
2013,04,11,04,05,11.20
2013,04,11,04,06,13.70
2013,04,11,04,07,20.60
2013,04,11,04,08,11.80
2013,04,11,04,09,16.10
2013,04,11,04,10,17.60
2013,04,11,04,11,11.40
2013,04,11,04,12,14.00
2013,04,11,04,13,15.40
2013,04,11,04,14,16.30
2013,04,11,04,15,15.70
2013,04,11,04,16,19.60
2013,04,11,04,17,14.30
2013,04,11,04,18,19.00
2013,04,11,04,19,14.00
2013,04,11,04,20,13.80
2013,04,11,04,21,13.90
2013,04,11,04,22,14.80
2013,04,11,04,23,11.90
2013,04,11,04,24,14.80
2013,04,11,04,25,13.80
2013,04,11,04,26,14.80
2013,04,11,04,27,11.40
2013,04,11,04,28,8.90
2013,04,11,04,29,13.40
2013,04,11,04,30,17.20
2013,04,11,04,31,13.80
2013,04,11,04,32,15.10
2013,04,11,04,33,18.40
2013,04,11,04,34,18.30
2013,04,11,04,35,18.10
2013,04,11,04,36,15.60
2013,04,11,04,37,17.70
2013,04,11,04,38,15.20
2013,04,11,04,39,18.00
2013,04,11,04,40,15.40
2013,04,11,04,41,17.10
2013,04,11,04,42,17.10
2013,04,11,04,43,14.80
2013,04,11,04,44,13.70
2013,04,11,04,45,15.90
2013,04,11,04,46,16.80
2013,04,11,04,47,12.90
2013,04,11,04,48,15.30
2013,04,11,04,49,10.50
2013,04,11,04,50,9.80
2013,04,11,04,51,17.80
2013,04,11,04,52,11.00
2013,04,11,04,53,12.40
2013,04,11,04,54,12.60
2013,04,11,04,55,6.50
2013,04,11,04,56,9.80
2013,04,11,04,57,12.80
2013,04,11,04,58,16.80
2013,04,11,04,59,16.50
2013,04,11,05,00,16.00
2013,04,11,05,01,15.80
2013,04,11,05,02,15.90
2013,04,11,05,03,14.80
2013,04,11,05,04,12.50
2013,04,11,05,05,15.30
2013,04,11,05,06,17.10
2013,04,11,05,07,15.30
2013,04,11,05,08,14.40
2013,04,11,05,09,12.90
2013,04,11,05,10,15.90
2013,04,11,05,11,18.50
2013,04,11,05,12,15.70
2013,04,11,05,13,19.20
2013,04,11,05,14,15.70
2013,04,11,05,15,11.30
2013,04,11,05,16,14.90
2013,04,11,05,17,11.00
2013,04,11,05,18,10.00
2013,04,11,05,19,9.40
2013,04,11,05,20,11.90
2013,04,11,05,21,8.60
2013,04,11,05,22,10.10
2013,04,11,05,23,7.50
2013,04,11,05,24,9.10
2013,04,11,05,25,10.30
2013,04,11,05,26,5.90
2013,04,11,05,27,7.30
2013,04,11,05,28,5.50
2013,04,11,05,29,7.10
2013,04,11,05,30,4.00
2013,04,11,05,31,5.30
2013,04,11,05,32,4.90
2013,04,11,05,33,6.10
2013,04,11,05,34,6.70
2013,04,11,05,35,4.10
2013,04,11,05,36,7.40
2013,04,11,05,37,9.20
2013,04,11,05,38,6.50
2013,04,11,05,39,7.10
2013,04,11,05,40,5.00
2013,04,11,05,41,2.70
2013,04,11,05,42,5.20
2013,04,11,05,43,5.30
2013,04,11,05,44,5.60
2013,04,11,05,45,6.70
2013,04,11,05,46,5.30
2013,04,11,05,47,5.20
2013,04,11,05,48,8.10
2013,04,11,05,49,6.40
2013,04,11,05,50,7.10
2013,04,11,05,51,5.60
2013,04,11,05,52,13.20
2013,04,11,05,53,7.20
2013,04,11,05,54,8.20
2013,04,11,05,55,11.20
2013,04,11,05,56,8.50
2013,04,11,05,57,6.70
2013,04,11,05,58,9.30
2013,04,11,05,59,5.70
2013,04,11,06,00,10.00
2013,04,11,06,01,6.30
2013,04,11,06,02,10.60
2013,04,11,06,03,8.80
2013,04,11,06,04,11.00
2013,04,11,06,05,9.00
2013,04,11,06,06,7.70
2013,04,11,06,07,6.80
2013,04,11,06,08,6.50
2013,04,11,06,09,7.90
2013,04,11,06,10,10.30
2013,04,11,06,11,6.70
2013,04,11,06,12,6.80
2013,04,11,06,13,9.40
2013,04,11,06,14,6.50
2013,04,11,06,15,7.00
2013,04,11,06,16,4.40
2013,04,11,06,17,4.40
2013,04,11,06,18,6.40
2013,04,11,06,19,6.00
2013,04,11,06,20,4.10
2013,04,11,06,21,7.30
2013,04,11,06,22,12.70
2013,04,11,06,23,13.40
2013,04,11,06,24,11.80
2013,04,11,06,25,9.40
2013,04,11,06,26,7.00
2013,04,11,06,27,9.30
2013,04,11,06,28,8.60
2013,04,11,06,29,7.90
2013,04,11,06,30,5.90
2013,04,11,06,31,5.30
2013,04,11,06,32,3.80
2013,04,11,06,33,4.20
2013,04,11,06,34,3.70
2013,04,11,06,35,4.10
2013,04,11,06,36,7.80
2013,04,11,06,37,6.20
2013,04,11,06,38,8.40
2013,04,11,06,39,8.50
2013,04,11,06,40,6.90
2013,04,11,06,41,9.10
2013,04,11,06,42,12.90
2013,04,11,06,43,9.50
2013,04,11,06,44,10.30
2013,04,11,06,45,12.70
2013,04,11,06,46,13.70
2013,04,11,06,47,17.40
2013,04,11,06,48,13.40
2013,04,11,06,49,11.40
2013,04,11,06,50,7.20
2013,04,11,06,51,11.90
2013,04,11,06,52,10.50
2013,04,11,06,53,16.40
2013,04,11,06,54,16.20
2013,04,11,06,55,12.70
2013,04,11,06,56,13.30
2013,04,11,06,57,11.90
2013,04,11,06,58,12.90
2013,04,11,06,59,10.00
2013,04,11,07,00,12.40
2013,04,11,07,01,13.40
2013,04,11,07,02,8.20
2013,04,11,07,03,9.80
2013,04,11,07,04,17.40
2013,04,11,07,05,11.40
2013,04,11,07,06,16.10
2013,04,11,07,07,15.00
2013,04,11,07,08,11.10
2013,04,11,07,09,11.90
2013,04,11,07,10,9.40
2013,04,11,07,11,7.80
2013,04,11,07,12,11.00
2013,04,11,07,13,11.70
2013,04,11,07,14,9.50
2013,04,11,07,15,8.60
2013,04,11,07,16,8.50
2013,04,11,07,17,7.00
2013,04,11,07,18,6.30
2013,04,11,07,19,10.00
2013,04,11,07,20,5.80
2013,04,11,07,21,12.80
2013,04,11,07,22,12.00
2013,04,11,07,23,10.30
2013,04,11,07,24,6.40
2013,04,11,07,25,9.00
2013,04,11,07,26,7.80
2013,04,11,07,27,10.20
2013,04,11,07,28,9.10
2013,04,11,07,29,8.60
2013,04,11,07,30,9.60
2013,04,11,07,31,9.90
2013,04,11,07,32,9.10
2013,04,11,07,33,9.70
2013,04,11,07,34,8.60
2013,04,11,07,35,8.30
2013,04,11,07,36,6.20
2013,04,11,07,37,6.20
2013,04,11,07,38,8.00
2013,04,11,07,39,6.50
2013,04,11,07,40,6.40
2013,04,11,07,41,8.20
2013,04,11,07,42,10.80
2013,04,11,07,43,14.50
2013,04,11,07,44,11.60
2013,04,11,07,45,7.60
2013,04,11,07,46,9.70
2013,04,11,07,47,12.50
2013,04,11,07,48,14.30
2013,04,11,07,49,10.70
2013,04,11,07,50,11.40
2013,04,11,07,51,12.80
2013,04,11,07,52,10.30
2013,04,11,07,53,7.30
2013,04,11,07,54,9.70
2013,04,11,07,55,16.30
2013,04,11,07,56,13.20
2013,04,11,07,57,13.00
2013,04,11,07,58,10.50
2013,04,11,07,59,15.90
2013,04,11,08,00,14.60
2013,04,11,08,01,12.50
2013,04,11,08,02,9.40
2013,04,11,08,03,12.00
2013,04,11,08,04,14.10
2013,04,11,08,05,7.80
2013,04,11,08,06,8.30
2013,04,11,08,07,7.20
2013,04,11,08,08,14.00
2013,04,11,08,09,17.40
2013,04,11,08,10,14.30
2013,04,11,08,11,14.60
2013,04,11,08,12,13.50
2013,04,11,08,13,15.30
2013,04,11,08,14,12.70
2013,04,11,08,15,14.70
2013,04,11,08,16,15.10
2013,04,11,08,17,13.50
2013,04,11,08,18,14.60
2013,04,11,08,19,13.10
2013,04,11,08,20,22.20
2013,04,11,08,21,13.30
2013,04,11,08,22,14.00
2013,04,11,08,23,14.40
2013,04,11,08,24,11.80
2013,04,11,08,25,14.90
2013,04,11,08,26,16.00
2013,04,11,08,27,18.60
2013,04,11,08,28,14.60
2013,04,11,08,29,15.90
2013,04,11,08,30,14.80
2013,04,11,08,31,12.40
2013,04,11,08,32,9.20
2013,04,11,08,33,15.20
2013,04,11,08,34,12.00
2013,04,11,08,35,16.60
2013,04,11,08,36,15.90
2013,04,11,08,37,11.60
2013,04,11,08,38,11.60
2013,04,11,08,39,10.10
2013,04,11,08,40,13.70
2013,04,11,08,41,15.10
2013,04,11,08,42,19.70
2013,04,11,08,43,12.50
2013,04,11,08,44,11.50
2013,04,11,08,45,12.10
2013,04,11,08,46,13.50
2013,04,11,08,47,11.90
2013,04,11,08,48,20.40
2013,04,11,08,49,13.90
2013,04,11,08,50,16.90
2013,04,11,08,51,11.60
2013,04,11,08,52,12.00
2013,04,11,08,53,15.90
2013,04,11,08,54,10.00
2013,04,11,08,55,21.20
2013,04,11,08,56,15.90
2013,04,11,08,57,16.00
2013,04,11,08,58,18.40
2013,04,11,08,59,19.80
2013,04,11,09,00,15.00
2013,04,11,09,01,17.40
2013,04,11,09,02,16.20
2013,04,11,09,03,13.50
2013,04,11,09,04,14.60
2013,04,11,09,05,20.20
2013,04,11,09,06,18.10
2013,04,11,09,07,11.50
2013,04,11,09,08,9.70
2013,04,11,09,09,15.10
2013,04,11,09,10,10.00
2013,04,11,09,11,12.90
2013,04,11,09,12,21.10
2013,04,11,09,13,17.40
2013,04,11,09,14,12.00
2013,04,11,09,15,12.10
2013,04,11,09,16,19.40
2013,04,11,09,17,18.50
2013,04,11,09,18,11.60
2013,04,11,09,19,16.70
2013,04,11,09,20,18.80
2013,04,11,09,21,17.00
2013,04,11,09,22,23.80
2013,04,11,09,23,14.70
2013,04,11,09,24,12.90
2013,04,11,09,25,12.70
2013,04,11,09,26,6.60
2013,04,11,09,27,11.70
2013,04,11,09,28,7.80
2013,04,11,09,29,12.80
2013,04,11,09,30,11.20
2013,04,11,09,31,15.80
2013,04,11,09,32,12.50
2013,04,11,09,33,13.90
2013,04,11,09,34,14.20
2013,04,11,09,35,7.10
2013,04,11,09,36,13.40
2013,04,11,09,37,11.60
2013,04,11,09,38,17.60
2013,04,11,09,39,10.50
2013,04,11,09,40,9.60
2013,04,11,09,41,13.20
2013,04,11,09,42,14.30
2013,04,11,09,43,20.10
2013,04,11,09,44,15.60
2013,04,11,09,45,20.40
2013,04,11,09,46,17.80
2013,04,11,09,47,14.90
2013,04,11,09,48,12.60
2013,04,11,09,49,12.40
2013,04,11,09,50,10.00
2013,04,11,09,51,9.70
2013,04,11,09,52,9.90
2013,04,11,09,53,10.40
2013,04,11,09,54,15.00
2013,04,11,09,55,13.80
2013,04,11,09,56,13.90
2013,04,11,09,57,12.10
2013,04,11,09,58,13.60
2013,04,11,09,59,18.40
2013,04,11,10,00,15.30
2013,04,11,10,01,13.00
2013,04,11,10,02,9.70
2013,04,11,10,03,15.00
2013,04,11,10,04,13.40
2013,04,11,10,05,22.30
2013,04,11,10,06,17.50
2013,04,11,10,07,14.90
2013,04,11,10,08,15.10
2013,04,11,10,09,17.40
2013,04,11,10,10,10.40
2013,04,11,10,11,11.60
2013,04,11,10,12,14.60
2013,04,11,10,13,12.50
2013,04,11,10,14,15.40
2013,04,11,10,15,15.20
2013,04,11,10,16,14.60
2013,04,11,10,17,11.60
2013,04,11,10,18,15.30
2013,04,11,10,19,13.30
2013,04,11,10,20,22.80
2013,04,11,10,21,21.40
2013,04,11,10,22,14.90
2013,04,11,10,23,8.80
2013,04,11,10,24,13.20
2013,04,11,10,25,16.00
2013,04,11,10,26,21.10
2013,04,11,10,27,21.10
2013,04,11,10,28,19.20
2013,04,11,10,29,11.80
2013,04,11,10,30,12.20
2013,04,11,10,31,13.90
2013,04,11,10,32,19.60
2013,04,11,10,33,13.70
2013,04,11,10,34,12.80
2013,04,11,10,35,20.90
2013,04,11,10,36,11.80
2013,04,11,10,37,11.60
2013,04,11,10,38,16.60
2013,04,11,10,39,16.80
2013,04,11,10,40,16.90
2013,04,11,10,41,17.90
2013,04,11,10,42,14.50
2013,04,11,10,43,15.40
2013,04,11,10,44,15.20
2013,04,11,10,45,14.70
2013,04,11,10,46,18.40
2013,04,11,10,47,20.10
2013,04,11,10,48,19.50
2013,04,11,10,49,16.70
2013,04,11,10,50,19.50
2013,04,11,10,51,11.10
2013,04,11,10,52,11.70
2013,04,11,10,53,18.80
2013,04,11,10,54,19.00
2013,04,11,10,55,14.40
2013,04,11,10,56,17.00
2013,04,11,10,57,18.60
2013,04,11,10,58,13.50
2013,04,11,10,59,15.30
2013,04,11,11,00,15.90
2013,04,11,11,01,14.80
2013,04,11,11,02,12.10
2013,04,11,11,03,13.50
2013,04,11,11,04,13.80
2013,04,11,11,05,15.80
2013,04,11,11,06,17.60
2013,04,11,11,07,11.80
2013,04,11,11,08,14.90
2013,04,11,11,09,14.60
2013,04,11,11,10,13.90
2013,04,11,11,11,16.90
2013,04,11,11,12,23.30
2013,04,11,11,13,13.80
2013,04,11,11,14,14.80
2013,04,11,11,15,19.70
2013,04,11,11,16,15.10
2013,04,11,11,17,12.10
2013,04,11,11,18,10.70
2013,04,11,11,19,12.40
2013,04,11,11,20,19.40
2013,04,11,11,21,15.90
2013,04,11,11,22,11.00
2013,04,11,11,23,14.10
2013,04,11,11,24,16.30
2013,04,11,11,25,12.10
2013,04,11,11,26,13.70
2013,04,11,11,27,12.40
2013,04,11,11,28,9.20
2013,04,11,11,29,11.90
2013,04,11,11,30,17.30
2013,04,11,11,31,17.30
2013,04,11,11,32,11.00
2013,04,11,11,33,12.00
2013,04,11,11,34,13.50
2013,04,11,11,35,13.50
2013,04,11,11,36,12.20
2013,04,11,11,37,16.70
2013,04,11,11,38,20.30
2013,04,11,11,39,20.30
2013,04,11,11,40,14.80
2013,04,11,11,41,18.90
2013,04,11,11,42,13.20
2013,04,11,11,43,18.00
2013,04,11,11,44,20.30
2013,04,11,11,45,22.10
2013,04,11,11,46,18.40
2013,04,11,11,47,17.00
2013,04,11,11,48,19.90
2013,04,11,11,49,14.20
2013,04,11,11,50,18.80
2013,04,11,11,51,14.60
2013,04,11,11,52,16.50
2013,04,11,11,53,15.90
2013,04,11,11,54,14.20
2013,04,11,11,55,13.20
2013,04,11,11,56,9.10
2013,04,11,11,57,14.30
2013,04,11,11,58,17.00
2013,04,11,11,59,16.50
2013,04,11,12,00,13.30
2013,04,11,12,01,16.50
2013,04,11,12,02,15.30
2013,04,11,12,03,15.70
2013,04,11,12,04,18.70
2013,04,11,12,05,16.20
2013,04,11,12,06,12.90
2013,04,11,12,07,13.90
2013,04,11,12,08,15.70
2013,04,11,12,09,17.80
2013,04,11,12,10,19.90
2013,04,11,12,11,17.00
2013,04,11,12,12,16.20
2013,04,11,12,13,15.50
2013,04,11,12,14,14.60
2013,04,11,12,15,12.10
2013,04,11,12,16,10.50
2013,04,11,12,17,10.80
2013,04,11,12,18,9.00
2013,04,11,12,19,10.90
2013,04,11,12,20,18.60
2013,04,11,12,21,13.00
2013,04,11,12,22,18.10
2013,04,11,12,23,16.80
2013,04,11,12,24,10.70
2013,04,11,12,25,9.00
2013,04,11,12,26,7.50
2013,04,11,12,27,13.30
2013,04,11,12,28,13.40
2013,04,11,12,29,17.10
2013,04,11,12,30,13.10
2013,04,11,12,31,12.00
2013,04,11,12,32,16.80
2013,04,11,12,33,11.70
2013,04,11,12,34,13.90
2013,04,11,12,35,14.20
2013,04,11,12,36,10.70
2013,04,11,12,37,9.20
2013,04,11,12,38,12.40
2013,04,11,12,39,11.90
2013,04,11,12,40,13.90
2013,04,11,12,41,7.30
2013,04,11,12,42,13.40
2013,04,11,12,43,11.80
2013,04,11,12,44,14.10
2013,04,11,12,45,12.80
2013,04,11,12,46,9.10
2013,04,11,12,47,9.50
2013,04,11,12,48,9.70
2013,04,11,12,49,10.00
2013,04,11,12,50,8.30
2013,04,11,12,51,9.90
2013,04,11,12,52,8.60
2013,04,11,12,53,8.00
2013,04,11,12,54,8.90
2013,04,11,12,55,11.20
2013,04,11,12,56,7.80
2013,04,11,12,57,9.80
2013,04,11,12,58,18.20
2013,04,11,12,59,14.30
2013,04,11,13,00,7.50
2013,04,11,13,01,8.50
2013,04,11,13,02,10.40
2013,04,11,13,03,8.50
2013,04,11,13,04,10.10
2013,04,11,13,05,11.30
2013,04,11,13,06,10.40
2013,04,11,13,07,7.00
2013,04,11,13,08,8.30
2013,04,11,13,09,16.20
2013,04,11,13,10,15.10
2013,04,11,13,11,7.80
2013,04,11,13,12,10.40
2013,04,11,13,13,19.20
2013,04,11,13,14,11.60
2013,04,11,13,15,13.60
2013,04,11,13,16,13.40
2013,04,11,13,17,15.80
2013,04,11,13,18,12.60
2013,04,11,13,19,14.00
2013,04,11,13,20,12.00
2013,04,11,13,21,11.50
2013,04,11,13,22,11.90
2013,04,11,13,23,7.60
2013,04,11,13,24,16.50
2013,04,11,13,25,15.80
2013,04,11,13,26,15.70
2013,04,11,13,27,15.60
2013,04,11,13,28,10.00
2013,04,11,13,29,11.50
2013,04,11,13,30,9.90
2013,04,11,13,31,8.60
2013,04,11,13,32,7.70
2013,04,11,13,33,8.50
2013,04,11,13,34,14.00
2013,04,11,13,35,15.90
2013,04,11,13,36,15.70
2013,04,11,13,37,9.30
2013,04,11,13,38,8.60
2013,04,11,13,39,4.80
2013,04,11,13,40,9.00
2013,04,11,13,41,11.90
2013,04,11,13,42,11.80
2013,04,11,13,43,8.60
2013,04,11,13,44,9.60
2013,04,11,13,45,7.20
2013,04,11,13,46,9.10
2013,04,11,13,47,4.80
2013,04,11,13,48,5.90
2013,04,11,13,49,7.80
2013,04,11,13,50,6.90
2013,04,11,13,51,7.30
2013,04,11,13,52,4.00
2013,04,11,13,53,1.10
2013,04,11,13,54,6.80
2013,04,11,13,55,5.00
2013,04,11,13,56,11.40
2013,04,11,13,57,8.40
2013,04,11,13,58,5.10
2013,04,11,13,59,5.90
2013,04,11,14,00,3.90
2013,04,11,14,01,5.30
2013,04,11,14,02,2.80
2013,04,11,14,03,4.90
2013,04,11,14,04,4.50
2013,04,11,14,05,8.30
2013,04,11,14,06,9.10
2013,04,11,14,07,5.80
2013,04,11,14,08,10.70
2013,04,11,14,09,11.30
2013,04,11,14,10,8.30
2013,04,11,14,11,6.10
2013,04,11,14,12,5.40
2013,04,11,14,13,4.90
2013,04,11,14,14,8.10
2013,04,11,14,15,5.00
2013,04,11,14,16,8.40
2013,04,11,14,17,11.50
2013,04,11,14,18,9.10
2013,04,11,14,19,14.60
2013,04,11,14,20,11.90
2013,04,11,14,21,8.30
2013,04,11,14,22,10.00
2013,04,11,14,23,7.30
2013,04,11,14,24,6.70
2013,04,11,14,25,9.70
2013,04,11,14,26,14.00
2013,04,11,14,27,3.70
2013,04,11,14,28,3.50
2013,04,11,14,29,3.10
2013,04,11,14,30,4.90
2013,04,11,14,31,6.10
2013,04,11,14,32,10.60
2013,04,11,14,33,9.60
2013,04,11,14,34,5.70
2013,04,11,14,35,8.20
2013,04,11,14,36,8.70
2013,04,11,14,37,4.20
2013,04,11,14,38,5.70
2013,04,11,14,39,6.90
2013,04,11,14,40,6.60
2013,04,11,14,41,4.70
2013,04,11,14,42,8.60
2013,04,11,14,43,8.10
2013,04,11,14,44,9.90
2013,04,11,14,45,9.10
2013,04,11,14,46,2.90
2013,04,11,14,47,2.90
2013,04,11,14,48,6.30
2013,04,11,14,49,5.50
2013,04,11,14,50,2.90
2013,04,11,14,51,6.00
2013,04,11,14,52,4.00
2013,04,11,14,53,4.50
2013,04,11,14,54,3.40
2013,04,11,14,55,1.20
2013,04,11,14,56,4.90
2013,04,11,14,57,7.40
2013,04,11,14,58,8.10
2013,04,11,14,59,7.80
2013,04,11,15,00,7.70
2013,04,11,15,01,7.00
2013,04,11,15,02,6.90
2013,04,11,15,03,6.10
2013,04,11,15,04,6.30
2013,04,11,15,05,5.90
2013,04,11,15,06,6.60
2013,04,11,15,07,5.30
2013,04,11,15,08,6.10
2013,04,11,15,09,4.80
2013,04,11,15,10,2.10
2013,04,11,15,11,3.70
2013,04,11,15,12,5.00
2013,04,11,15,13,2.90
2013,04,11,15,14,2.40
2013,04,11,15,15,1.70
2013,04,11,15,16,3.00
2013,04,11,15,17,3.50
2013,04,11,15,18,2.80
2013,04,11,15,19,3.40
2013,04,11,15,20,4.60
2013,04,11,15,21,3.70
2013,04,11,15,22,4.40
2013,04,11,15,23,2.70
2013,04,11,15,24,3.10
2013,04,11,15,25,3.80
2013,04,11,15,26,4.20
2013,04,11,15,27,1.20
2013,04,11,15,28,2.00
2013,04,11,15,29,2.60
2013,04,11,15,30,1.70
2013,04,11,15,31,1.40
2013,04,11,15,32,1.70
2013,04,11,15,33,2.10
2013,04,11,15,34,2.70
2013,04,11,15,35,3.70
2013,04,11,15,36,4.20
2013,04,11,15,37,1.70
2013,04,11,15,38,2.10
2013,04,11,15,39,5.50
2013,04,11,15,40,5.70
2013,04,11,15,41,3.10
2013,04,11,15,42,3.80
2013,04,11,15,43,7.70
2013,04,11,15,44,5.70
2013,04,11,15,45,4.40
2013,04,11,15,46,4.70
2013,04,11,15,47,8.90
2013,04,11,15,48,7.80
2013,04,11,15,49,6.10
2013,04,11,15,50,3.70
2013,04,11,15,51,8.10
2013,04,11,15,52,5.20
2013,04,11,15,53,5.00
2013,04,11,15,54,9.40
2013,04,11,15,55,4.30
2013,04,11,15,56,4.70
2013,04,11,15,57,8.10
2013,04,11,15,58,8.00
2013,04,11,15,59,10.50
2013,04,11,16,00,9.70
2013,04,11,16,01,12.50
2013,04,11,16,02,14.70
2013,04,11,16,03,12.60
2013,04,11,16,04,8.40
2013,04,11,16,05,7.40
2013,04,11,16,06,9.70
2013,04,11,16,07,8.50
2013,04,11,16,08,8.30
2013,04,11,16,09,16.50
2013,04,11,16,10,15.20
2013,04,11,16,11,11.60
2013,04,11,16,12,7.20
2013,04,11,16,13,8.80
2013,04,11,16,14,8.50
2013,04,11,16,15,17.80
2013,04,11,16,16,13.20
2013,04,11,16,17,11.70
2013,04,11,16,18,12.60
2013,04,11,16,19,11.80
2013,04,11,16,20,10.60
2013,04,11,16,21,9.50
2013,04,11,16,22,9.30
2013,04,11,16,23,6.40
2013,04,11,16,24,14.40
2013,04,11,16,25,20.80
2013,04,11,16,26,11.50
2013,04,11,16,27,7.80
2013,04,11,16,28,13.10
2013,04,11,16,29,14.10
2013,04,11,16,30,13.80
2013,04,11,16,31,14.50
2013,04,11,16,32,11.30
2013,04,11,16,33,12.40
2013,04,11,16,34,10.60
2013,04,11,16,35,9.20
2013,04,11,16,36,6.70
2013,04,11,16,37,8.90
2013,04,11,16,38,11.90
2013,04,11,16,39,9.50
2013,04,11,16,40,11.10
2013,04,11,16,41,9.70
2013,04,11,16,42,9.20
2013,04,11,16,43,9.30
2013,04,11,16,44,13.90
2013,04,11,16,45,12.90
2013,04,11,16,46,7.50
2013,04,11,16,47,8.40
2013,04,11,16,48,9.20
2013,04,11,16,49,9.10
2013,04,11,16,50,8.80
2013,04,11,16,51,8.60
2013,04,11,16,52,16.90
2013,04,11,16,53,13.50
2013,04,11,16,54,18.60
2013,04,11,16,55,17.30
2013,04,11,16,56,13.30
2013,04,11,16,57,11.00
2013,04,11,16,58,12.70
2013,04,11,16,59,10.30
2013,04,11,17,00,10.40
2013,04,11,17,01,13.40
2013,04,11,17,02,17.50
2013,04,11,17,03,18.30
2013,04,11,17,04,12.50
2013,04,11,17,05,8.10
2013,04,11,17,06,8.30
2013,04,11,17,07,12.00
2013,04,11,17,08,10.90
2013,04,11,17,09,13.30
2013,04,11,17,10,14.70
2013,04,11,17,11,9.70
2013,04,11,17,12,7.60
2013,04,11,17,13,10.50
2013,04,11,17,14,10.50
2013,04,11,17,15,11.30
2013,04,11,17,16,7.90
2013,04,11,17,17,12.40
2013,04,11,17,18,12.40
2013,04,11,17,19,9.80
2013,04,11,17,20,15.90
2013,04,11,17,21,15.40
2013,04,11,17,22,10.80
2013,04,11,17,23,12.90
2013,04,11,17,24,14.20
2013,04,11,17,25,9.20
2013,04,11,17,26,15.20
2013,04,11,17,27,10.60
2013,04,11,17,28,16.30
2013,04,11,17,29,12.90
2013,04,11,17,30,8.90
2013,04,11,17,31,10.20
2013,04,11,17,32,12.10
2013,04,11,17,33,9.70
2013,04,11,17,34,10.50
2013,04,11,17,35,16.80
2013,04,11,17,36,18.00